Location: Newark
(42.7133°N, 87.7910°W)
Time: 10:04:51
(UTC+00:00)

Tiros 1 - Pass Details

Date: 26 September 2019
Orbit: 630 x 664 km, 48.4° (Epoch: 22 October)

Event Time Altitude Azimuth Distance (km) Brightness Sun altitude
Rises 14:47:50 0° 190° (S) 2,977 10.9 31.1°
Reaches altitude 10° 14:51:04 10° 167° (SSE) 2,066 10.6 31.5°
Maximum altitude 14:53:46 15° 132° (SE) 1,749 11.2 31.9°
Drops below altitude 10° 14:56:27 10° 98° (E) 2,063 10.8 32.3°
Sets 14:59:40 0° 75° (ENE) 2,972 11.0 32.8°
